Location: McFarlands Corners
(41.4117°N, 81.3382°W)
Time: 13:12:06
(UTC+00:00)

Tiros 1 despin weight - Pass Details

Date: 25 February 2026
Orbit: 556 x 593 km, 48.2° (Epoch: 11 March)

Event Time Altitude Azimuth Distance (km) Brightness Sun altitude
Rises 23:51:42 0° 292° (WNW) 2,734 ? -8.3°
Reaches altitude 10° 23:54:09 10° 281° (W) 1,835 ? -8.8°
Maximum altitude 23:57:47 29° 221° (SW) 1,026 ? -9.4°
Drops below altitude 10° 00:01:26 10° 160° (SSE) 1,830 ? -10.1°
Sets 00:03:52 0° 149° (SSE) 2,724 ? -10.6°
